Location: Sun City Center
(27.6996°N, 82.3528°W)
Time: 01:09:42
(UTC-05:00)

Cosmos 2084 Rocket - Visible Passes

Search period start: 20 November 2017 00:00
Search period end: 30 November 2017 00:00
Orbit: 508 x 675 km, 62.8° (Epoch: 19 November)

Date Brightness Start Highest point End Pass type
(mag) Time Alt. Az. Time Alt. Az. Time Alt. Az.
21 Nov 6.0 04:58:18 10° NNE 05:00:01 12° NE 05:01:43 10° E visible
21 Nov 5.7 18:55:46 10° SE 18:56:21 12° SE 18:56:21 12° SE visible
22 Nov 5.3 05:06:51 18° NNE 05:08:33 24° ENE 05:11:44 10° ESE visible
22 Nov 4.8 19:02:38 10° S 19:05:30 26° SE 19:05:30 26° SE visible
23 Nov 4.0 05:15:50 36° N 05:16:58 48° ENE 05:20:46 10° SE visible
23 Nov 3.6 19:10:22 10° SSW 19:14:36 56° SE 19:14:36 56° SE visible
24 Nov 3.0 05:24:54 65° WNW 05:25:20 75° WSW 05:29:15 10° SSE visible
24 Nov 3.6 19:18:40 10° SW 19:23:07 70° WNW 19:23:39 62° NNW visible
25 Nov 4.0 05:34:00 32° SW 05:34:00 32° SW 05:37:10 10° S visible
25 Nov 4.8 19:27:27 10° SW 19:31:31 35° WNW 19:32:38 30° NNW visible
26 Nov 5.2 05:43:06 14° SW 05:43:06 14° SW 05:44:19 10° SSW visible
26 Nov 4.5 17:56:37 10° S 18:00:33 30° ESE 18:04:19 10° NE visible
26 Nov 5.7 19:36:51 10° W 19:39:59 19° NW 19:41:31 16° NNW visible
27 Nov 3.6 18:04:26 10° SSW 18:08:51 61° ESE 18:13:04 10° NE visible
27 Nov 6.4 19:48:00 10° WNW 19:48:34 10° NW 19:49:07 10° NW visible
28 Nov 3.9 18:12:45 10° SW 18:17:12 66° WNW 18:21:25 10° NNE visible
29 Nov 5.1 18:21:35 10° WSW 18:25:36 33° WNW 18:29:27 10° N visible
